Mt. Pocono, PA

2:56 AM EDT on May 25, 2017 (GMT -0400)
Pocono Mountains Municipal

Weather History for KMPO - January, 2014

Change the Weather History Date:

Saturday, January 25, 2014

  Actual Average Record
Temperature  
Mean Temperature 13 °F 23 °F  
Max Temperature 17 °F 31 °F 64 °F (1967)
Min Temperature 9 °F 16 °F -14 °F (1987)
Degree Days  
Heating Degree Days 52 42  
Month to date heating degree days 1133 1046  
Since 1 July heating degree days 3865 3783  
Cooling Degree Days 0 0  
Month to date cooling degree days 0 0  
Year to date cooling degree days 0 0  
Moisture  
Dew Point 8 °F    
Average Humidity 69    
Maximum Humidity 88    
Minimum Humidity 50    
Precipitation  
Precipitation 0.05 in 0.08 in 3.20 in (1938)
Month to date precipitation 3.35 2.45  
Year to date precipitation 3.35 2.45  
Sea Level Pressure  
Sea Level Pressure 29.46 in    
Wind  
Wind Speed 11 mph (SW)    
Max Wind Speed 23 mph    
Max Gust Speed 35 mph    
Visibility 3 miles    
Events Fog , Snow    
T = Trace of Precipitation, MM = Missing Value Source: NWS Daily Summary

Daily Weather History Graph

Daily Weather History Graph

Search for Another Location

Airport or City:

Trip Planner

Search our weather history database for the weather conditions in past years. The results will help you decide how hot, cold, wet, or windy it might be!

Date:

Astronomy

Jan. 25, 2014 Rise Set
Actual Time 7:18 AM EST 5:09 PM EST
Civil Twilight 6:48 AM EST 5:39 PM EST
Nautical Twilight 6:15 AM EST 6:12 PM EST
Astronomical Twilight 5:42 AM EST 6:45 PM EST
Moon 1:47 AM EST 12:08 PM EST
Length of Visible Light 10h 50m
Length of Day
9h 51m
Waning Crescent, 34% of the Moon is Illuminated
Jan 25
Waning Crescent
Jan 30
New
Feb 6
First Quarter
Feb 14
Full
Feb 22
Last Quarter

Hourly Weather History & Observations

Time (EST) Temp. Windchill Dew Point Humidity Pressure Visibility Wind Dir Wind Speed Gust Speed Precip Events Conditions
12:53 AM 10.0 °F -5.2 °F -5.1 °F 51% 29.92 in 10.0 mi SW 12.7 mph - N/A   Clear
1:53 AM 10.9 °F -4.7 °F -5.1 °F 49% 29.88 in 10.0 mi SW 13.8 mph 21.9 mph N/A   Clear
2:53 AM 10.0 °F -4.5 °F -5.1 °F 51% 29.85 in 10.0 mi SW 11.5 mph 20.7 mph N/A   Clear
3:53 AM 10.0 °F -6.5 °F -4.0 °F 53% 29.81 in 10.0 mi SSW 15.0 mph 24.2 mph N/A   Partly Cloudy
4:53 AM 10.0 °F -4.5 °F -2.9 °F 56% 29.78 in 10.0 mi South 11.5 mph - N/A   Clear
5:53 AM 10.0 °F -4.5 °F -2.0 °F 58% 29.74 in 10.0 mi South 11.5 mph - N/A   Scattered Clouds
6:53 AM 10.0 °F -5.9 °F -0.9 °F 61% 29.71 in 10.0 mi South 13.8 mph 21.9 mph N/A   Overcast
7:26 AM 10.9 °F -1.8 °F 1.0 °F 64% 29.59 in 2.5 mi SSW 9.2 mph - 0.00 in Snow Light Snow
7:35 AM 10.0 °F -3.7 °F 1.9 °F 70% 29.58 in 1.0 mi SSW 10.4 mph - 0.00 in Snow Light Snow
7:43 AM 10.0 °F -5.2 °F 3.0 °F 73% 29.58 in 0.5 mi SSW 12.7 mph - 0.00 in Snow Snow
7:53 AM 10.0 °F -6.5 °F 3.9 °F 76% 29.69 in 0.8 mi SSW 15.0 mph 23.0 mph 0.00 in Snow Light Snow
8:53 AM 10.0 °F -5.9 °F 5.0 °F 80% 29.65 in 0.5 mi South 13.8 mph - 0.00 in Snow Snow
9:53 AM 10.9 °F -3.4 °F 6.1 °F 81% 29.62 in 0.5 mi South 11.5 mph 20.7 mph 0.00 in Snow Snow
10:53 AM 12.0 °F -1.3 °F 7.0 °F 80% 29.60 in 0.8 mi SSW 10.4 mph - 0.00 in Snow Light Snow
11:23 AM 12.0 °F 0.5 °F 8.1 °F 84% 29.47 in 0.5 mi South 8.1 mph - 0.00 in Fog , Snow Snow
11:53 AM 12.9 °F -0.9 °F 8.1 °F 81% 29.55 in 0.8 mi South 11.5 mph - 0.00 in Snow Light Snow
12:04 PM 12.9 °F 2.6 °F 8.1 °F 81% 29.43 in 1.2 mi Variable 6.9 mph - 0.00 in Snow Light Snow
12:12 PM 12.9 °F -0.9 °F 8.1 °F 81% 29.42 in 3.0 mi South 11.5 mph 17.3 mph 0.00 in Snow Light Snow
12:30 PM 14.0 °F -0.8 °F 9.0 °F 80% 29.40 in 1.8 mi South 13.8 mph 21.9 mph 0.00 in Snow Light Snow
12:38 PM 14.0 °F -2.0 °F 9.0 °F 80% 29.39 in 1.0 mi South 16.1 mph - 0.00 in Snow Light Snow
12:46 PM 15.1 °F 2.5 °F 9.0 °F 77% 29.39 in 0.8 mi SSW 10.4 mph - 0.00 in Snow Light Snow
12:53 PM 15.1 °F 1.8 °F 9.0 °F 77% 29.49 in 0.8 mi South 11.5 mph - 0.00 in Snow Light Snow
1:06 PM 15.1 °F 2.5 °F 9.0 °F 77% 29.38 in 1.2 mi SSW 10.4 mph 20.7 mph 0.00 in Snow Light Snow
1:42 PM 15.1 °F 1.1 °F 10.0 °F 80% 29.35 in 0.5 mi SW 12.7 mph - 0.00 in Snow Snow
1:53 PM 15.1 °F 1.8 °F 10.9 °F 84% 29.44 in 0.5 mi South 11.5 mph - 0.00 in Fog , Snow Light Snow
2:53 PM 15.1 °F 2.5 °F 10.0 °F 80% 29.41 in 0.8 mi SSW 10.4 mph - 0.00 in Snow Light Snow
3:01 PM 15.1 °F 4.2 °F 10.9 °F 84% 29.30 in 1.0 mi South 8.1 mph - 0.00 in Snow Light Snow
3:04 PM 15.1 °F 3.3 °F 10.9 °F 84% 29.30 in 0.8 mi South 9.2 mph - 0.00 in Snow Light Snow
3:13 PM 15.1 °F 0.5 °F 10.0 °F 80% 29.30 in 0.8 mi South 13.8 mph - 0.00 in Snow Light Snow
3:36 PM 15.1 °F 1.8 °F 10.9 °F 84% 29.30 in 0.2 mi SSW 11.5 mph - 0.00 in Fog , Snow Snow
3:46 PM 15.1 °F 3.3 °F 10.9 °F 84% 29.30 in 0.5 mi SSW 9.2 mph - 0.00 in Fog , Snow Snow
3:53 PM 15.1 °F 3.3 °F 10.9 °F 84% 29.40 in 0.5 mi SSW 9.2 mph - 0.00 in Fog , Snow Snow
4:04 PM 15.1 °F 1.8 °F 10.9 °F 84% 29.29 in 0.8 mi SSW 11.5 mph - 0.00 in Snow Light Snow
4:17 PM 15.1 °F 3.3 °F 10.9 °F 84% 29.29 in 1.2 mi SSW 9.2 mph - 0.00 in Snow Light Snow
4:24 PM 15.1 °F 5.2 °F 10.9 °F 84% 29.29 in 1.5 mi SSW 6.9 mph - 0.00 in Snow Light Snow
4:53 PM 15.1 °F 2.5 °F 10.0 °F 80% 29.40 in 3.0 mi SW 10.4 mph - 0.00 in   Haze
5:49 PM 15.8 °F 6.1 °F 10.4 °F 79% 29.30 in 6.0 mi WSW 6.9 mph - N/A   Overcast
5:53 PM 15.1 °F 5.2 °F 10.9 °F 84% 29.41 in 7.0 mi WSW 6.9 mph - N/A   Overcast
6:20 PM 15.1 °F 5.2 °F 10.9 °F 84% 29.30 in 7.0 mi WSW 6.9 mph - N/A   Overcast
6:53 PM 14.0 °F 2.9 °F 10.0 °F 84% 29.41 in 8.0 mi WSW 8.1 mph - N/A   Overcast
7:09 PM 14.0 °F 2.0 °F 10.0 °F 84% 29.31 in 4.0 mi WSW 9.2 mph - 0.00 in Snow Light Snow
7:53 PM 14.0 °F 1.2 °F 10.0 °F 84% 29.41 in 6.0 mi West 10.4 mph - 0.00 in   Overcast
8:37 PM 15.1 °F 0.5 °F 10.9 °F 84% 29.31 in 2.0 mi West 13.8 mph 19.6 mph 0.00 in Snow Light Snow
8:49 PM 15.8 °F 2.1 °F 10.4 °F 79% 29.31 in 3.0 mi West 12.7 mph - 0.00 in Snow Light Snow
8:53 PM 15.1 °F 0.5 °F 10.9 °F 84% 29.41 in 4.0 mi West 13.8 mph - 0.00 in Snow Light Snow
9:12 PM 15.1 °F 1.8 °F 12.0 °F 88% 29.31 in 8.0 mi West 11.5 mph - 0.00 in   Scattered Clouds
9:53 PM 15.1 °F 1.8 °F 12.0 °F 88% 29.42 in 9.0 mi West 11.5 mph - 0.00 in   Clear
10:15 PM 15.1 °F 3.3 °F 12.0 °F 88% 29.32 in 2.5 mi West 9.2 mph - 0.00 in Snow Light Snow
10:29 PM 15.1 °F 2.5 °F 12.0 °F 88% 29.32 in 5.0 mi West 10.4 mph - 0.00 in Snow Light Snow
10:53 PM 15.1 °F 1.8 °F 12.0 °F 88% 29.43 in 5.0 mi West 11.5 mph - 0.00 in Snow Light Snow
11:11 PM 17.1 °F 3.0 °F 12.9 °F 84% 29.33 in 8.0 mi West 13.8 mph - 0.00 in   Mostly Cloudy
11:20 PM 17.1 °F 1.0 °F 12.9 °F 84% 29.35 in 1.5 mi NW 18.4 mph 27.6 mph 0.00 in Snow Light Snow
11:24 PM 17.1 °F 0.6 °F 12.9 °F 84% 29.36 in 0.2 mi NW 19.6 mph 33.4 mph 0.00 in Fog , Snow Heavy Snow
11:29 PM 16.0 °F 2.3 °F 12.0 °F 84% 29.36 in 0.2 mi NW 12.7 mph 33.4 mph 0.00 in Fog Light Freezing Fog
11:42 PM 16.0 °F -0.9 °F 10.9 °F 81% 29.37 in 0.5 mi NW 19.6 mph 34.5 mph 0.00 in Snow Snow
11:53 PM 15.1 °F -1.1 °F 10.0 °F 80% 29.48 in 0.8 mi WNW 17.3 mph 28.8 mph 0.00 in Snow Light Snow